ASAP-S

导读

ASAP-S是法国于2011年12月17日08:00发射的一颗小型卫星,作为法国航天领域探索性任务的组成部分,延续了法国在航天技术领域持续创新的传统。该卫星主要承载技术验证与空间环境探测相关试验任务,为后续法国高分辨率观测卫星系列的研发积累了关键的轨道运行数据与工程经验,是法国航天任务体系中技术探索环节的重要实践载体。

Basic Information
目录编号:
38013
目录名称:
ASAP-S
国际标识:
2011-076G
轨道中心:
EARTH
卫星名称:
ASAP-S
卫星全名:
--
卫星状态:
在轨 (已飞行5383 天)
发射日期:
2011-12-17 UTC
国别 :
法国 (FR)
星等 :
--
This satellite is enrolled in the Space Conjunction Data Service (SCDS) and the current flight risk assessment level is: No High Risk
Orbit Information
数据来源 国际轨道数据
星历时间: 2026-09-12T14:33:39+0800
11小时前
查看轨道信息
半长轴: 6864.083km
偏心率: 0.0005505
轨道倾角: 98.020°
近地点辐角 196.702°
升交点赤经 191.765°
平近点角 163.404°
近地点: 482.167km
远地点: 489.725km
周期: 94.326分钟
每日圈数: 15.266133
Detailed Information
使用方式:
暂无
2D Orbit Map
3D Orbit Map
Orbit Altitude Analysis Chart
Orbit Inclination Analysis Chart
Orbit Comprehensive Analysis Chart
View Comprehensive Chart
Conjunction Data List
Event ID Objects TCA Miss Dist (km) Collision Risk Probability Collision Risk Index (CRI) Action
CDM_260913-045303-801306-263228
ASAP-S (38013)
SIGI (62632)
2026-09-13T
04:53:00+0000
2.099 km
极远距离
2.483102E-6 低风险 0.43
CDM_260912-230303-801306-656721
ASAP-S (38013)
2026-09-12T
23:03:42+0000
2.970 km
极远距离
1.333245E-6 低风险 0.37
CDM_260915-011803-801305-548121
ASAP-S (38013)
2026-09-15T
01:18:44+0000
2.997 km
极远距离
1.306267E-6 低风险 0.37
CDM_260915-013003-801306-215121
ASAP-S (38013)
2026-09-15T
01:30:14+0000
2.876 km
极远距离
9.650568E-7 极低风险 0.35
CDM_260913-175903-801305-878921
ASAP-S (38013)
2026-09-13T
17:59:29+0000
2.834 km
极远距离
9.502261E-7 极低风险 0.35
Miss Distance Evolution Trend with All Objects
Collision Probability Evolution Trend with All Objects